Year,Month,Day,Hour,Minute,Value (Times are PST for temperature in C)
2018,04,02,00,00,1.60
2018,04,02,00,01,1.60
2018,04,02,00,02,1.60
2018,04,02,00,03,1.60
2018,04,02,00,04,1.50
2018,04,02,00,05,1.50
2018,04,02,00,06,1.50
2018,04,02,00,07,1.40
2018,04,02,00,08,1.40
2018,04,02,00,09,1.40
2018,04,02,00,10,1.40
2018,04,02,00,11,1.40
2018,04,02,00,12,1.40
2018,04,02,00,13,1.40
2018,04,02,00,14,1.30
2018,04,02,00,15,1.30
2018,04,02,00,16,1.20
2018,04,02,00,17,1.20
2018,04,02,00,18,1.20
2018,04,02,00,19,1.20
2018,04,02,00,20,1.10
2018,04,02,00,21,1.10
2018,04,02,00,22,1.10
2018,04,02,00,23,1.10
2018,04,02,00,24,1.10
2018,04,02,00,25,1.10
2018,04,02,00,26,1.10
2018,04,02,00,27,1.10
2018,04,02,00,28,1.10
2018,04,02,00,29,1.10
2018,04,02,00,30,1.10
2018,04,02,00,31,1.00
2018,04,02,00,32,1.00
2018,04,02,00,33,0.90
2018,04,02,00,34,0.80
2018,04,02,00,35,0.70
2018,04,02,00,36,0.60
2018,04,02,00,37,0.50
2018,04,02,00,38,0.50
2018,04,02,00,39,0.40
2018,04,02,00,40,0.40
2018,04,02,00,41,0.30
2018,04,02,00,42,0.30
2018,04,02,00,43,0.30
2018,04,02,00,44,0.30
2018,04,02,00,45,0.30
2018,04,02,00,46,0.30
2018,04,02,00,47,0.30
2018,04,02,00,48,0.30
2018,04,02,00,49,0.30
2018,04,02,00,50,0.30
2018,04,02,00,51,0.30
2018,04,02,00,52,0.40
2018,04,02,00,53,0.40
2018,04,02,00,54,0.40
2018,04,02,00,55,0.50
2018,04,02,00,56,0.50
2018,04,02,00,57,0.50
2018,04,02,00,58,0.40
2018,04,02,00,59,0.40
2018,04,02,01,00,0.40
2018,04,02,01,01,0.30
2018,04,02,01,02,0.30
2018,04,02,01,03,0.30
2018,04,02,01,04,0.30
2018,04,02,01,05,0.20
2018,04,02,01,06,0.20
2018,04,02,01,07,0.10
2018,04,02,01,08,0.10
2018,04,02,01,09,0.00
2018,04,02,01,10,0.00
2018,04,02,01,11,-0.10
2018,04,02,01,12,-0.10
2018,04,02,01,13,-0.10
2018,04,02,01,14,-0.10
2018,04,02,01,15,-0.20
2018,04,02,01,16,-0.20
2018,04,02,01,17,-0.20
2018,04,02,01,18,-0.20
2018,04,02,01,19,-0.20
2018,04,02,01,20,-0.20
2018,04,02,01,21,-0.20
2018,04,02,01,22,-0.20
2018,04,02,01,23,-0.20
2018,04,02,01,24,-0.10
2018,04,02,01,25,-0.10
2018,04,02,01,26,-0.10
2018,04,02,01,27,-0.10
2018,04,02,01,28,-0.10
2018,04,02,01,29,-0.10
2018,04,02,01,30,-0.10
2018,04,02,01,31,-0.10
2018,04,02,01,32,-0.10
2018,04,02,01,33,0.00
2018,04,02,01,34,0.10
2018,04,02,01,35,0.10
2018,04,02,01,36,0.10
2018,04,02,01,37,0.10
2018,04,02,01,38,0.10
2018,04,02,01,39,0.20
2018,04,02,01,40,0.20
2018,04,02,01,41,0.20
2018,04,02,01,42,0.20
2018,04,02,01,43,0.30
2018,04,02,01,44,0.30
2018,04,02,01,45,0.30
2018,04,02,01,46,0.30
2018,04,02,01,47,0.40
2018,04,02,01,48,0.50
2018,04,02,01,49,0.50
2018,04,02,01,50,0.50
2018,04,02,01,51,0.60
2018,04,02,01,52,0.60
2018,04,02,01,53,0.60
2018,04,02,01,54,0.60
2018,04,02,01,55,0.60
2018,04,02,01,56,0.50
2018,04,02,01,57,0.50
2018,04,02,01,58,0.50
2018,04,02,01,59,0.40
2018,04,02,02,00,0.40
2018,04,02,02,01,0.40
2018,04,02,02,02,0.40
2018,04,02,02,03,0.30
2018,04,02,02,04,0.30
2018,04,02,02,05,0.30
2018,04,02,02,06,0.30
2018,04,02,02,07,0.30
2018,04,02,02,08,0.30
2018,04,02,02,09,0.30
2018,04,02,02,10,0.30
2018,04,02,02,11,0.30
2018,04,02,02,12,0.30
2018,04,02,02,13,0.30
2018,04,02,02,14,0.30
2018,04,02,02,15,0.20
2018,04,02,02,16,0.20
2018,04,02,02,17,0.20
2018,04,02,02,18,0.20
2018,04,02,02,19,0.20
2018,04,02,02,20,0.10
2018,04,02,02,21,0.10
2018,04,02,02,22,0.10
2018,04,02,02,23,0.10
2018,04,02,02,24,0.00
2018,04,02,02,25,0.00
2018,04,02,02,26,-0.10
2018,04,02,02,27,-0.10
2018,04,02,02,28,-0.10
2018,04,02,02,29,-0.10
2018,04,02,02,30,-0.10
2018,04,02,02,31,-0.10
2018,04,02,02,32,-0.10
2018,04,02,02,33,-0.10
2018,04,02,02,34,-0.10
2018,04,02,02,35,-0.10
2018,04,02,02,36,-0.10
2018,04,02,02,37,-0.10
2018,04,02,02,38,-0.10
2018,04,02,02,39,-0.20
2018,04,02,02,40,-0.20
2018,04,02,02,41,-0.20
2018,04,02,02,42,-0.30
2018,04,02,02,43,-0.30
2018,04,02,02,44,-0.30
2018,04,02,02,45,-0.30
2018,04,02,02,46,-0.30
2018,04,02,02,47,-0.40
2018,04,02,02,48,-0.40
2018,04,02,02,49,-0.40
2018,04,02,02,50,-0.40
2018,04,02,02,51,-0.40
2018,04,02,02,52,-0.40
2018,04,02,02,53,-0.40
2018,04,02,02,54,-0.40
2018,04,02,02,55,-0.40
2018,04,02,02,56,-0.40
2018,04,02,02,57,-0.40
2018,04,02,02,58,-0.40
2018,04,02,02,59,-0.40
2018,04,02,03,00,-0.40
2018,04,02,03,01,-0.40
2018,04,02,03,02,-0.50
2018,04,02,03,03,-0.50
2018,04,02,03,04,-0.50
2018,04,02,03,05,-0.60
2018,04,02,03,06,-0.60
2018,04,02,03,07,-0.60
2018,04,02,03,08,-0.60
2018,04,02,03,09,-0.70
2018,04,02,03,10,-0.70
2018,04,02,03,11,-0.70
2018,04,02,03,12,-0.70
2018,04,02,03,13,-0.70
2018,04,02,03,14,-0.70
2018,04,02,03,15,-0.70
2018,04,02,03,16,-0.70
2018,04,02,03,17,-0.70
2018,04,02,03,18,-0.70
2018,04,02,03,19,-0.70
2018,04,02,03,20,-0.70
2018,04,02,03,21,-0.70
2018,04,02,03,22,-0.70
2018,04,02,03,23,-0.70
2018,04,02,03,24,-0.70
2018,04,02,03,25,-0.60
2018,04,02,03,26,-0.60
2018,04,02,03,27,-0.60
2018,04,02,03,28,-0.60
2018,04,02,03,29,-0.50
2018,04,02,03,30,-0.50
2018,04,02,03,31,-0.50
2018,04,02,03,32,-0.40
2018,04,02,03,33,-0.40
2018,04,02,03,34,-0.40
2018,04,02,03,35,-0.40
2018,04,02,03,36,-0.40
2018,04,02,03,37,-0.50
2018,04,02,03,38,-0.50
2018,04,02,03,39,-0.50
2018,04,02,03,40,-0.60
2018,04,02,03,41,-0.60
2018,04,02,03,42,-0.60
2018,04,02,03,43,-0.60
2018,04,02,03,44,-0.60
2018,04,02,03,45,-0.60
2018,04,02,03,46,-0.60
2018,04,02,03,47,-0.70
2018,04,02,03,48,-0.70
2018,04,02,03,49,-0.80
2018,04,02,03,50,-0.80
2018,04,02,03,51,-0.80
2018,04,02,03,52,-0.80
2018,04,02,03,53,-0.80
2018,04,02,03,54,-0.80
2018,04,02,03,55,-0.80
2018,04,02,03,56,-0.80
2018,04,02,03,57,-0.80
2018,04,02,03,58,-0.80
2018,04,02,03,59,-0.90
2018,04,02,04,00,-0.90
2018,04,02,04,01,-0.90
2018,04,02,04,02,-0.90
2018,04,02,04,03,-1.00
2018,04,02,04,04,-1.00
2018,04,02,04,05,-1.00
2018,04,02,04,06,-1.00
2018,04,02,04,07,-1.10
2018,04,02,04,08,-1.10
2018,04,02,04,09,-1.10
2018,04,02,04,10,-1.10
2018,04,02,04,11,-1.10
2018,04,02,04,12,-1.20
2018,04,02,04,13,-1.20
2018,04,02,04,14,-1.20
2018,04,02,04,15,-1.20
2018,04,02,04,16,-1.20
2018,04,02,04,17,-1.30
2018,04,02,04,18,-1.30
2018,04,02,04,19,-1.30
2018,04,02,04,20,-1.30
2018,04,02,04,21,-1.30
2018,04,02,04,22,-1.30
2018,04,02,04,23,-1.30
2018,04,02,04,24,-1.30
2018,04,02,04,25,-1.30
2018,04,02,04,26,-1.30
2018,04,02,04,27,-1.30
2018,04,02,04,28,-1.30
2018,04,02,04,29,-1.30
2018,04,02,04,30,-1.30
2018,04,02,04,31,-1.30
2018,04,02,04,32,-1.30
2018,04,02,04,33,-1.30
2018,04,02,04,34,-1.30
2018,04,02,04,35,-1.30
2018,04,02,04,36,-1.30
2018,04,02,04,37,-1.30
2018,04,02,04,38,-1.30
2018,04,02,04,39,-1.30
2018,04,02,04,40,-1.30
2018,04,02,04,41,-1.30
2018,04,02,04,42,-1.30
2018,04,02,04,43,-1.40
2018,04,02,04,44,-1.40
2018,04,02,04,45,-1.40
2018,04,02,04,46,-1.50
2018,04,02,04,47,-1.50
2018,04,02,04,48,-1.50
2018,04,02,04,49,-1.50
2018,04,02,04,50,-1.50
2018,04,02,04,51,-1.50
2018,04,02,04,52,-1.50
2018,04,02,04,53,-1.50
2018,04,02,04,54,-1.50
2018,04,02,04,55,-1.50
2018,04,02,04,56,-1.50
2018,04,02,04,57,-1.50
2018,04,02,04,58,-1.50
2018,04,02,04,59,-1.50
2018,04,02,05,00,-1.50
2018,04,02,05,01,-1.60
2018,04,02,05,02,-1.60
2018,04,02,05,03,-1.60
2018,04,02,05,04,-1.60
2018,04,02,05,05,-1.60
2018,04,02,05,06,-1.60
2018,04,02,05,07,-1.50
2018,04,02,05,08,-1.50
2018,04,02,05,09,-1.50
2018,04,02,05,10,-1.50
2018,04,02,05,11,-1.50
2018,04,02,05,12,-1.50
2018,04,02,05,13,-1.50
2018,04,02,05,14,-1.50
2018,04,02,05,15,-1.50
2018,04,02,05,16,-1.50
2018,04,02,05,17,-1.50
2018,04,02,05,18,-1.50
2018,04,02,05,19,-1.50
2018,04,02,05,20,-1.60
2018,04,02,05,21,-1.60
2018,04,02,05,22,-1.60
2018,04,02,05,23,-1.60
2018,04,02,05,24,-1.60
2018,04,02,05,25,-1.60
2018,04,02,05,26,-1.70
2018,04,02,05,27,-1.70
2018,04,02,05,28,-1.70
2018,04,02,05,29,-1.70
2018,04,02,05,30,-1.70
2018,04,02,05,31,-1.80
2018,04,02,05,32,-1.80
2018,04,02,05,33,-1.80
2018,04,02,05,34,-1.80
2018,04,02,05,35,-1.80
2018,04,02,05,36,-1.80
2018,04,02,05,37,-1.80
2018,04,02,05,38,-1.80
2018,04,02,05,39,-1.80
2018,04,02,05,40,-1.80
2018,04,02,05,41,-1.80
2018,04,02,05,42,-1.80
2018,04,02,05,43,-1.80
2018,04,02,05,44,-1.80
2018,04,02,05,45,-1.80
2018,04,02,05,46,-1.80
2018,04,02,05,47,-1.80
2018,04,02,05,48,-1.80
2018,04,02,05,49,-1.80
2018,04,02,05,50,-1.90
2018,04,02,05,51,-1.90
2018,04,02,05,52,-1.90
2018,04,02,05,53,-1.90
2018,04,02,05,54,-1.90
2018,04,02,05,55,-1.90
2018,04,02,05,56,-1.90
2018,04,02,05,57,-2.00
2018,04,02,05,58,-2.00
2018,04,02,05,59,-2.00
2018,04,02,06,00,-2.00
2018,04,02,06,01,-2.00
2018,04,02,06,02,-2.00
2018,04,02,06,03,-2.00
2018,04,02,06,04,-2.00
2018,04,02,06,05,-2.00
2018,04,02,06,06,-2.00
2018,04,02,06,07,-2.00
2018,04,02,06,08,-1.90
2018,04,02,06,09,-1.90
2018,04,02,06,10,-2.00
2018,04,02,06,11,-2.00
2018,04,02,06,12,-2.00
2018,04,02,06,13,-2.00
2018,04,02,06,14,-2.00
2018,04,02,06,15,-2.00
2018,04,02,06,16,-2.00
2018,04,02,06,17,-2.10
2018,04,02,06,18,-2.10
2018,04,02,06,19,-2.20
2018,04,02,06,20,-2.20
2018,04,02,06,21,-2.20
2018,04,02,06,22,-2.20
2018,04,02,06,23,-2.20
2018,04,02,06,24,-2.20
2018,04,02,06,25,-2.20
2018,04,02,06,26,-2.30
2018,04,02,06,27,-2.30
2018,04,02,06,28,-2.30
2018,04,02,06,29,-2.30
2018,04,02,06,30,-2.30
2018,04,02,06,31,-2.30
2018,04,02,06,32,-2.30
2018,04,02,06,33,-2.30
2018,04,02,06,34,-2.40
2018,04,02,06,35,-2.40
2018,04,02,06,36,-2.40
2018,04,02,06,37,-2.40
2018,04,02,06,38,-2.40
2018,04,02,06,39,-2.40
2018,04,02,06,40,-2.40
2018,04,02,06,41,-2.40
2018,04,02,06,42,-2.40
2018,04,02,06,43,-2.50
2018,04,02,06,44,-2.50
2018,04,02,06,45,-2.50
2018,04,02,06,46,-2.50
2018,04,02,06,47,-2.50
2018,04,02,06,48,-2.50
2018,04,02,06,49,-2.40
2018,04,02,06,50,-2.40
2018,04,02,06,51,-2.40
2018,04,02,06,52,-2.40
2018,04,02,06,53,-2.40
2018,04,02,06,54,-2.40
2018,04,02,06,55,-2.40
2018,04,02,06,56,-2.40
2018,04,02,06,57,-2.40
2018,04,02,06,58,-2.30
2018,04,02,06,59,-2.30
2018,04,02,07,00,-2.30
2018,04,02,07,01,-2.20
2018,04,02,07,02,-2.20
2018,04,02,07,03,-2.20
2018,04,02,07,04,-2.20
2018,04,02,07,05,-2.20
2018,04,02,07,06,-2.20
2018,04,02,07,07,-2.20
2018,04,02,07,08,-2.20
2018,04,02,07,09,-2.30
2018,04,02,07,10,-2.30
2018,04,02,07,11,-2.30
2018,04,02,07,12,-2.30
2018,04,02,07,13,-2.30
2018,04,02,07,14,-2.30
2018,04,02,07,15,-2.30
2018,04,02,07,16,-2.30
2018,04,02,07,17,-2.40
2018,04,02,07,18,-2.40
2018,04,02,07,19,-2.30
2018,04,02,07,20,-2.30
2018,04,02,07,21,-2.30
2018,04,02,07,22,-2.40
2018,04,02,07,23,-2.30
2018,04,02,07,24,-2.40
2018,04,02,07,25,-2.40
2018,04,02,07,26,-2.40
2018,04,02,07,27,-2.40
2018,04,02,07,28,-2.30
2018,04,02,07,29,-2.30
2018,04,02,07,30,-2.30
2018,04,02,07,31,-2.30
2018,04,02,07,32,-2.30
2018,04,02,07,33,-2.20
2018,04,02,07,34,-2.20
2018,04,02,07,35,-2.10
2018,04,02,07,36,-2.00
2018,04,02,07,37,-2.00
2018,04,02,07,38,-1.90
2018,04,02,07,39,-1.90
2018,04,02,07,40,-1.90
2018,04,02,07,41,-1.80
2018,04,02,07,42,-1.80
2018,04,02,07,43,-1.80
2018,04,02,07,44,-1.80
2018,04,02,07,45,-1.80
2018,04,02,07,46,-1.80
2018,04,02,07,47,-1.80
2018,04,02,07,48,-1.80
2018,04,02,07,49,-1.70
2018,04,02,07,50,-1.70
2018,04,02,07,51,-1.70
2018,04,02,07,52,-1.70
2018,04,02,07,53,-1.60
2018,04,02,07,54,-1.60
2018,04,02,07,55,-1.50
2018,04,02,07,56,-1.50
2018,04,02,07,57,-1.40
2018,04,02,07,58,-1.40
2018,04,02,07,59,-1.30
2018,04,02,08,00,-1.30
2018,04,02,08,01,-1.20
2018,04,02,08,02,-1.10
2018,04,02,08,03,-1.10
2018,04,02,08,04,-1.00
2018,04,02,08,05,-1.00
2018,04,02,08,06,-1.00
2018,04,02,08,07,-0.90
2018,04,02,08,08,-0.90
2018,04,02,08,09,-0.80
2018,04,02,08,10,-0.80
2018,04,02,08,11,-0.70
2018,04,02,08,12,-0.60
2018,04,02,08,13,-0.50
2018,04,02,08,14,-0.40
2018,04,02,08,15,-0.30
2018,04,02,08,16,-0.20
2018,04,02,08,17,-0.20
2018,04,02,08,18,-0.10
2018,04,02,08,19,-0.10
2018,04,02,08,20,0.00
2018,04,02,08,21,0.10
2018,04,02,08,22,0.20
2018,04,02,08,23,0.20
2018,04,02,08,24,0.30
2018,04,02,08,25,0.50
2018,04,02,08,26,0.60
2018,04,02,08,27,0.70
2018,04,02,08,28,0.80
2018,04,02,08,29,0.90
2018,04,02,08,30,1.00
2018,04,02,08,31,1.10
2018,04,02,08,32,1.30
2018,04,02,08,33,1.40
2018,04,02,08,34,1.50
2018,04,02,08,35,1.60
2018,04,02,08,36,1.80
2018,04,02,08,37,1.90
2018,04,02,08,38,2.00
2018,04,02,08,39,2.10
2018,04,02,08,40,2.20
2018,04,02,08,41,2.30
2018,04,02,08,42,2.50
2018,04,02,08,43,2.60
2018,04,02,08,44,2.70
2018,04,02,08,45,2.80
2018,04,02,08,46,3.00
2018,04,02,08,47,3.10
2018,04,02,08,48,3.20
2018,04,02,08,49,3.30
2018,04,02,08,50,3.50
2018,04,02,08,51,3.60
2018,04,02,08,52,3.70
2018,04,02,08,53,3.80
2018,04,02,08,54,3.80
2018,04,02,08,55,4.00
2018,04,02,08,56,4.10
2018,04,02,08,57,4.20
2018,04,02,08,58,4.40
2018,04,02,08,59,4.50
2018,04,02,09,00,4.70
2018,04,02,09,01,4.80
2018,04,02,09,02,4.90
2018,04,02,09,03,5.00
2018,04,02,09,04,5.20
2018,04,02,09,05,5.30
2018,04,02,09,06,5.50
2018,04,02,09,07,5.60
2018,04,02,09,08,5.70
2018,04,02,09,09,5.80
2018,04,02,09,10,6.00
2018,04,02,09,11,6.10
2018,04,02,09,12,6.10
2018,04,02,09,13,6.20
2018,04,02,09,14,6.20
2018,04,02,09,15,6.20
2018,04,02,09,16,6.20
2018,04,02,09,17,6.20
2018,04,02,09,18,6.20
2018,04,02,09,19,6.10
2018,04,02,09,20,6.10
2018,04,02,09,21,6.20
2018,04,02,09,22,6.20
2018,04,02,09,23,6.30
2018,04,02,09,24,6.30
2018,04,02,09,25,6.40
2018,04,02,09,26,6.40
2018,04,02,09,27,6.50
2018,04,02,09,28,6.50
2018,04,02,09,29,6.60
2018,04,02,09,30,6.70
2018,04,02,09,31,6.70
2018,04,02,09,32,6.80
2018,04,02,09,33,6.90
2018,04,02,09,34,6.90
2018,04,02,09,35,6.90
2018,04,02,09,36,7.00
2018,04,02,09,37,7.10
2018,04,02,09,38,7.10
2018,04,02,09,39,7.20
2018,04,02,09,40,7.20
2018,04,02,09,41,7.20
2018,04,02,09,42,7.30
2018,04,02,09,43,7.30
2018,04,02,09,44,7.30
2018,04,02,09,45,7.30
2018,04,02,09,46,7.30
2018,04,02,09,47,7.40
2018,04,02,09,48,7.40
2018,04,02,09,49,7.40
2018,04,02,09,50,7.50
2018,04,02,09,51,7.60
2018,04,02,09,52,7.60
2018,04,02,09,53,7.70
2018,04,02,09,54,7.80
2018,04,02,09,55,7.80
2018,04,02,09,56,7.80
2018,04,02,09,57,7.90
2018,04,02,09,58,8.00
2018,04,02,09,59,8.10
2018,04,02,10,00,8.20
2018,04,02,10,01,8.20
2018,04,02,10,02,8.30
2018,04,02,10,03,8.30
2018,04,02,10,04,8.30
2018,04,02,10,05,8.30
2018,04,02,10,06,8.30
2018,04,02,10,07,8.30
2018,04,02,10,08,8.30
2018,04,02,10,09,8.20
2018,04,02,10,10,8.20
2018,04,02,10,11,8.20
2018,04,02,10,12,8.30
2018,04,02,10,13,8.30
2018,04,02,10,14,8.30
2018,04,02,10,15,8.30
2018,04,02,10,16,8.30
2018,04,02,10,17,8.40
2018,04,02,10,18,8.40
2018,04,02,10,19,8.40
2018,04,02,10,20,8.50
2018,04,02,10,21,8.60
2018,04,02,10,22,8.60
2018,04,02,10,23,8.70
2018,04,02,10,24,8.60
2018,04,02,10,25,8.60
2018,04,02,10,26,8.50
2018,04,02,10,27,8.50
2018,04,02,10,28,8.50
2018,04,02,10,29,8.60
2018,04,02,10,30,8.60
2018,04,02,10,31,8.50
2018,04,02,10,32,8.50
2018,04,02,10,33,8.50
2018,04,02,10,34,8.40
2018,04,02,10,35,8.40
2018,04,02,10,36,8.30
2018,04,02,10,37,8.30
2018,04,02,10,38,8.30
2018,04,02,10,39,8.30
2018,04,02,10,40,8.40
2018,04,02,10,41,8.50
2018,04,02,10,42,8.50
2018,04,02,10,43,8.60
2018,04,02,10,44,8.60
2018,04,02,10,45,8.60
2018,04,02,10,46,8.50
2018,04,02,10,47,8.40
2018,04,02,10,48,8.40
2018,04,02,10,49,8.40
2018,04,02,10,50,8.40
2018,04,02,10,51,8.40
2018,04,02,10,52,8.40
2018,04,02,10,53,8.40
2018,04,02,10,54,8.40
2018,04,02,10,55,8.40
2018,04,02,10,56,8.50
2018,04,02,10,57,8.60
2018,04,02,10,58,8.70
2018,04,02,10,59,8.70
2018,04,02,11,00,8.70
2018,04,02,11,01,8.80
2018,04,02,11,02,8.80
2018,04,02,11,03,8.80
2018,04,02,11,04,8.80
2018,04,02,11,05,8.90
2018,04,02,11,06,8.90
2018,04,02,11,07,8.90
2018,04,02,11,08,8.80
2018,04,02,11,09,8.80
2018,04,02,11,10,8.80
2018,04,02,11,11,8.80
2018,04,02,11,12,8.80
2018,04,02,11,13,8.80
2018,04,02,11,14,8.80
2018,04,02,11,15,8.90
2018,04,02,11,16,8.90
2018,04,02,11,17,8.90
2018,04,02,11,18,8.90
2018,04,02,11,19,8.90
2018,04,02,11,20,8.80
2018,04,02,11,21,8.70
2018,04,02,11,22,8.80
2018,04,02,11,23,8.80
2018,04,02,11,24,8.80
2018,04,02,11,25,8.90
2018,04,02,11,26,8.90
2018,04,02,11,27,8.90
2018,04,02,11,28,8.80
2018,04,02,11,29,8.80
2018,04,02,11,30,8.70
2018,04,02,11,31,8.70
2018,04,02,11,32,8.70
2018,04,02,11,33,8.60
2018,04,02,11,34,8.50
2018,04,02,11,35,8.50
2018,04,02,11,36,8.50
2018,04,02,11,37,8.50
2018,04,02,11,38,8.50
2018,04,02,11,39,8.50
2018,04,02,11,40,8.50
2018,04,02,11,41,8.50
2018,04,02,11,42,8.40
2018,04,02,11,43,8.40
2018,04,02,11,44,8.40
2018,04,02,11,45,8.40
2018,04,02,11,46,8.40
2018,04,02,11,47,8.40
2018,04,02,11,48,8.50
2018,04,02,11,49,8.60
2018,04,02,11,50,8.70
2018,04,02,11,51,8.70
2018,04,02,11,52,8.70
2018,04,02,11,53,8.60
2018,04,02,11,54,8.60
2018,04,02,11,55,8.50
2018,04,02,11,56,8.50
2018,04,02,11,57,8.50
2018,04,02,11,58,8.50
2018,04,02,11,59,8.60
2018,04,02,12,00,8.70
2018,04,02,12,01,8.70
2018,04,02,12,02,8.60
2018,04,02,12,03,8.60
2018,04,02,12,04,8.60
2018,04,02,12,05,8.60
2018,04,02,12,06,8.60
2018,04,02,12,07,8.60
2018,04,02,12,08,8.50
2018,04,02,12,09,8.50
2018,04,02,12,10,8.50
2018,04,02,12,11,8.50
2018,04,02,12,12,8.50
2018,04,02,12,13,8.50
2018,04,02,12,14,8.50
2018,04,02,12,15,8.60
2018,04,02,12,16,8.80
2018,04,02,12,17,9.00
2018,04,02,12,18,9.10
2018,04,02,12,19,9.10
2018,04,02,12,20,9.20
2018,04,02,12,21,9.40
2018,04,02,12,22,9.50
2018,04,02,12,23,9.50
2018,04,02,12,24,9.50
2018,04,02,12,25,9.70
2018,04,02,12,26,9.70
2018,04,02,12,27,9.80
2018,04,02,12,28,9.80
2018,04,02,12,29,9.90
2018,04,02,12,30,9.90
2018,04,02,12,31,9.80
2018,04,02,12,32,9.90
2018,04,02,12,33,9.90
2018,04,02,12,34,9.90
2018,04,02,12,35,9.90
2018,04,02,12,36,9.80
2018,04,02,12,37,9.90
2018,04,02,12,38,9.90
2018,04,02,12,39,10.00
2018,04,02,12,40,10.10
2018,04,02,12,41,10.10
2018,04,02,12,42,10.10
2018,04,02,12,43,10.10
2018,04,02,12,44,10.10
2018,04,02,12,45,10.10
2018,04,02,12,46,10.20
2018,04,02,12,47,10.20
2018,04,02,12,48,10.30
2018,04,02,12,49,10.40
2018,04,02,12,50,10.50
2018,04,02,12,51,10.60
2018,04,02,12,52,10.70
2018,04,02,12,53,10.60
2018,04,02,12,54,10.60
2018,04,02,12,55,10.50
2018,04,02,12,56,10.30
2018,04,02,12,57,10.10
2018,04,02,12,58,9.90
2018,04,02,12,59,9.80
2018,04,02,13,00,9.80
2018,04,02,13,01,9.90
2018,04,02,13,02,10.00
2018,04,02,13,03,10.10
2018,04,02,13,04,10.10
2018,04,02,13,05,10.10
2018,04,02,13,06,10.10
2018,04,02,13,07,10.20
2018,04,02,13,08,10.20
2018,04,02,13,09,10.10
2018,04,02,13,10,10.20
2018,04,02,13,11,10.30
2018,04,02,13,12,10.40
2018,04,02,13,13,10.60
2018,04,02,13,14,10.60
2018,04,02,13,15,10.60
2018,04,02,13,16,10.60
2018,04,02,13,17,10.50
2018,04,02,13,18,10.50
2018,04,02,13,19,10.40
2018,04,02,13,20,10.40
2018,04,02,13,21,10.30
2018,04,02,13,22,10.10
2018,04,02,13,23,9.80
2018,04,02,13,24,9.90
2018,04,02,13,25,10.00
2018,04,02,13,26,10.20
2018,04,02,13,27,10.20
2018,04,02,13,28,10.40
2018,04,02,13,29,10.40
2018,04,02,13,30,10.40
2018,04,02,13,31,10.40
2018,04,02,13,32,10.30
2018,04,02,13,33,10.30
2018,04,02,13,34,10.20
2018,04,02,13,35,10.20
2018,04,02,13,36,10.10
2018,04,02,13,37,10.00
2018,04,02,13,38,10.00
2018,04,02,13,39,9.90
2018,04,02,13,40,9.90
2018,04,02,13,41,10.10
2018,04,02,13,42,10.20
2018,04,02,13,43,10.30
2018,04,02,13,44,10.40
2018,04,02,13,45,10.50
2018,04,02,13,46,10.60
2018,04,02,13,47,10.70
2018,04,02,13,48,10.70
2018,04,02,13,49,10.70
2018,04,02,13,50,10.70
2018,04,02,13,51,10.70
2018,04,02,13,52,10.60
2018,04,02,13,53,10.50
2018,04,02,13,54,10.40
2018,04,02,13,55,10.20
2018,04,02,13,56,10.10
2018,04,02,13,57,10.00
2018,04,02,13,58,10.20
2018,04,02,13,59,10.30
2018,04,02,14,00,10.40
2018,04,02,14,01,10.50
2018,04,02,14,02,10.60
2018,04,02,14,03,10.50
2018,04,02,14,04,10.50
2018,04,02,14,05,10.40
2018,04,02,14,06,10.50
2018,04,02,14,07,10.60
2018,04,02,14,08,10.70
2018,04,02,14,09,10.80
2018,04,02,14,10,10.60
2018,04,02,14,11,10.50
2018,04,02,14,12,10.40
2018,04,02,14,13,10.40
2018,04,02,14,14,10.50
2018,04,02,14,15,10.60
2018,04,02,14,16,10.60
2018,04,02,14,17,10.60
2018,04,02,14,18,10.50
2018,04,02,14,19,10.60
2018,04,02,14,20,10.80
2018,04,02,14,21,10.90
2018,04,02,14,22,10.90
2018,04,02,14,23,10.80
2018,04,02,14,24,10.70
2018,04,02,14,25,10.50
2018,04,02,14,26,10.40
2018,04,02,14,27,10.50
2018,04,02,14,28,10.60
2018,04,02,14,29,10.60
2018,04,02,14,30,10.60
2018,04,02,14,31,10.50
2018,04,02,14,32,10.40
2018,04,02,14,33,10.40
2018,04,02,14,34,10.40
2018,04,02,14,35,10.40
2018,04,02,14,36,10.30
2018,04,02,14,37,10.30
2018,04,02,14,38,10.40
2018,04,02,14,39,10.50
2018,04,02,14,40,10.50
2018,04,02,14,41,10.40
2018,04,02,14,42,10.40
2018,04,02,14,43,10.40
2018,04,02,14,44,10.40
2018,04,02,14,45,10.30
2018,04,02,14,46,10.40
2018,04,02,14,47,10.40
2018,04,02,14,48,10.50
2018,04,02,14,49,10.60
2018,04,02,14,50,10.70
2018,04,02,14,51,10.70
2018,04,02,14,52,10.60
2018,04,02,14,53,10.50
2018,04,02,14,54,10.60
2018,04,02,14,55,10.60
2018,04,02,14,56,10.50
2018,04,02,14,57,10.60
2018,04,02,14,58,10.50
2018,04,02,14,59,10.40
2018,04,02,15,00,10.30
2018,04,02,15,01,10.20
2018,04,02,15,02,10.20
2018,04,02,15,03,10.20
2018,04,02,15,04,10.10
2018,04,02,15,05,10.10
2018,04,02,15,06,10.20
2018,04,02,15,07,10.30
2018,04,02,15,08,10.40
2018,04,02,15,09,10.50
2018,04,02,15,10,10.40
2018,04,02,15,11,10.30
2018,04,02,15,12,10.30
2018,04,02,15,13,10.40
2018,04,02,15,14,10.50
2018,04,02,15,15,10.50
2018,04,02,15,16,10.50
2018,04,02,15,17,10.60
2018,04,02,15,18,10.50
2018,04,02,15,19,10.50
2018,04,02,15,20,10.50
2018,04,02,15,21,10.40
2018,04,02,15,22,10.30
2018,04,02,15,23,10.30
2018,04,02,15,24,10.30
2018,04,02,15,25,10.20
2018,04,02,15,26,10.10
2018,04,02,15,27,10.10
2018,04,02,15,28,10.10
2018,04,02,15,29,10.00
2018,04,02,15,30,10.10
2018,04,02,15,31,10.20
2018,04,02,15,32,10.20
2018,04,02,15,33,10.30
2018,04,02,15,34,10.30
2018,04,02,15,35,10.30
2018,04,02,15,36,10.30
2018,04,02,15,37,10.30
2018,04,02,15,38,10.20
2018,04,02,15,39,10.00
2018,04,02,15,40,9.90
2018,04,02,15,41,9.90
2018,04,02,15,42,9.90
2018,04,02,15,43,9.90
2018,04,02,15,44,10.00
2018,04,02,15,45,10.10
2018,04,02,15,46,10.20
2018,04,02,15,47,10.20
2018,04,02,15,48,10.30
2018,04,02,15,49,10.30
2018,04,02,15,50,10.20
2018,04,02,15,51,10.10
2018,04,02,15,52,10.10
2018,04,02,15,53,10.10
2018,04,02,15,54,10.20
2018,04,02,15,55,10.20
2018,04,02,15,56,10.10
2018,04,02,15,57,10.10
2018,04,02,15,58,10.10
2018,04,02,15,59,10.00
2018,04,02,16,00,9.90
2018,04,02,16,01,9.80
2018,04,02,16,02,9.70
2018,04,02,16,03,9.70
2018,04,02,16,04,9.70
2018,04,02,16,05,9.70
2018,04,02,16,06,9.70
2018,04,02,16,07,9.70
2018,04,02,16,08,9.70
2018,04,02,16,09,9.80
2018,04,02,16,10,9.90
2018,04,02,16,11,9.90
2018,04,02,16,12,9.90
2018,04,02,16,13,9.80
2018,04,02,16,14,9.80
2018,04,02,16,15,9.80
2018,04,02,16,16,9.80
2018,04,02,16,17,9.80
2018,04,02,16,18,9.80
2018,04,02,16,19,9.80
2018,04,02,16,20,9.90
2018,04,02,16,21,9.90
2018,04,02,16,22,9.70
2018,04,02,16,23,9.60
2018,04,02,16,24,9.50
2018,04,02,16,25,9.40
2018,04,02,16,26,9.40
2018,04,02,16,27,9.40
2018,04,02,16,28,9.40
2018,04,02,16,29,9.30
2018,04,02,16,30,9.40
2018,04,02,16,31,9.40
2018,04,02,16,32,9.30
2018,04,02,16,33,9.30
2018,04,02,16,34,9.20
2018,04,02,16,35,9.30
2018,04,02,16,36,9.30
2018,04,02,16,37,9.30
2018,04,02,16,38,9.20
2018,04,02,16,39,9.20
2018,04,02,16,40,9.20
2018,04,02,16,41,9.20
2018,04,02,16,42,9.20
2018,04,02,16,43,9.20
2018,04,02,16,44,9.20
2018,04,02,16,45,9.20
2018,04,02,16,46,9.20
2018,04,02,16,47,9.20
2018,04,02,16,48,9.10
2018,04,02,16,49,9.10
2018,04,02,16,50,9.10
2018,04,02,16,51,9.20
2018,04,02,16,52,9.20
2018,04,02,16,53,9.20
2018,04,02,16,54,9.20
2018,04,02,16,55,9.10
2018,04,02,16,56,9.10
2018,04,02,16,57,9.10
2018,04,02,16,58,9.10
2018,04,02,16,59,9.10
2018,04,02,17,00,9.10
2018,04,02,17,01,9.10
2018,04,02,17,02,9.10
2018,04,02,17,03,9.10
2018,04,02,17,04,9.10
2018,04,02,17,05,9.10
2018,04,02,17,06,9.20
2018,04,02,17,07,9.30
2018,04,02,17,08,9.40
2018,04,02,17,09,9.50
2018,04,02,17,10,9.50
2018,04,02,17,11,9.60
2018,04,02,17,12,9.60
2018,04,02,17,13,9.60
2018,04,02,17,14,9.60
2018,04,02,17,15,9.70
2018,04,02,17,16,9.70
2018,04,02,17,17,9.70
2018,04,02,17,18,9.70
2018,04,02,17,19,9.70
2018,04,02,17,20,9.70
2018,04,02,17,21,9.60
2018,04,02,17,22,9.50
2018,04,02,17,23,9.50
2018,04,02,17,24,9.50
2018,04,02,17,25,9.60
2018,04,02,17,26,9.50
2018,04,02,17,27,9.50
2018,04,02,17,28,9.50
2018,04,02,17,29,9.40
2018,04,02,17,30,9.40
2018,04,02,17,31,9.50
2018,04,02,17,32,9.50
2018,04,02,17,33,9.60
2018,04,02,17,34,9.70
2018,04,02,17,35,9.80
2018,04,02,17,36,9.90
2018,04,02,17,37,9.80
2018,04,02,17,38,9.70
2018,04,02,17,39,9.60
2018,04,02,17,40,9.60
2018,04,02,17,41,9.60